Time,TemperatureF,DewpointF,PressureIn,WindDirection,WindDirectionDegrees,WindSpeedMPH,WindSpeedGustMPH,Humidity,HourlyPrecipIn,Conditions,Clouds,dailyrainin,SolarRadiationWatts/m^2,SoftwareType,DateUTC
2013-06-22 08:02:00,47.0,27.0,-100.00,NE,34,1.0,3.0,46,0.00,,,0.00,69.000000,,2013-06-22 15:02:00,
2013-06-22 08:34:00,64.0,27.0,-100.00,SW,214,7.0,11.0,25,-99.99,,,-99.99,330.000000,,2013-06-22 15:34:00,
2013-06-22 08:43:00,64.0,27.0,-100.00,SW,214,7.0,11.0,25,-99.99,,,-99.99,330.000000,,2013-06-22 15:43:00,
2013-06-22 08:53:00,64.0,27.0,-100.00,SW,214,7.0,11.0,25,-99.99,,,-99.99,330.000000,,2013-06-22 15:53:00,
2013-06-22 09:02:00,64.0,27.0,-100.00,SW,214,7.0,11.0,25,-99.99,,,-99.99,330.000000,,2013-06-22 16:02:00,
2013-06-22 09:34:00,68.0,29.0,-100.00,SSW,202,7.0,11.0,23,0.00,,,0.00,404.000000,,2013-06-22 16:34:00,
2013-06-22 09:43:00,68.0,29.0,-100.00,SSW,202,7.0,11.0,23,0.00,,,0.00,404.000000,,2013-06-22 16:43:00,
2013-06-22 09:52:00,68.0,29.0,-100.00,SSW,202,7.0,11.0,23,0.00,,,0.00,404.000000,,2013-06-22 16:52:00,
2013-06-22 10:01:00,68.0,29.0,-100.00,SSW,202,7.0,11.0,23,0.00,,,0.00,404.000000,,2013-06-22 17:01:00,
2013-06-22 10:43:00,71.0,27.0,-100.00,South,185,11.0,17.0,19,0.00,,,0.00,821.000000,,2013-06-22 17:43:00,
2013-06-22 10:52:00,71.0,27.0,-100.00,South,185,11.0,17.0,19,0.00,,,0.00,821.000000,,2013-06-22 17:52:00,
2013-06-22 11:01:00,71.0,27.0,-100.00,South,185,11.0,17.0,19,0.00,,,0.00,821.000000,,2013-06-22 18:01:00,
2013-06-22 11:34:00,74.0,28.0,-100.00,SSW,203,11.0,20.0,18,0.00,,,0.00,943.000000,,2013-06-22 18:34:00,
2013-06-22 11:43:00,74.0,28.0,-100.00,SSW,203,11.0,20.0,18,0.00,,,0.00,943.000000,,2013-06-22 18:43:00,
2013-06-22 11:52:00,74.0,28.0,-100.00,SSW,203,11.0,20.0,18,0.00,,,0.00,943.000000,,2013-06-22 18:52:00,
2013-06-22 12:01:00,74.0,28.0,-100.00,SSW,203,11.0,20.0,18,0.00,,,0.00,943.000000,,2013-06-22 19:01:00,
2013-06-22 12:33:00,76.0,27.0,-100.00,SW,232,9.0,21.0,16,0.00,,,0.00,999.000000,,2013-06-22 19:33:00,
2013-06-22 12:43:00,76.0,27.0,-100.00,SW,232,9.0,21.0,16,0.00,,,0.00,999.000000,,2013-06-22 19:43:00,
2013-06-22 12:53:00,76.0,27.0,-100.00,SW,232,9.0,21.0,16,0.00,,,0.00,999.000000,,2013-06-22 19:53:00,
2013-06-22 13:02:00,76.0,27.0,-100.00,SW,232,9.0,21.0,16,0.00,,,0.00,999.000000,,2013-06-22 20:02:00,
2013-06-22 13:34:00,76.0,27.0,-100.00,South,187,11.0,21.0,16,0.00,,,0.00,1005.000000,,2013-06-22 20:34:00,
2013-06-22 13:43:00,76.0,27.0,-100.00,South,187,11.0,21.0,16,0.00,,,0.00,1005.000000,,2013-06-22 20:43:00,
2013-06-22 13:53:00,76.0,27.0,-100.00,South,187,11.0,21.0,16,0.00,,,0.00,1005.000000,,2013-06-22 20:53:00,
2013-06-22 14:01:00,76.0,27.0,-100.00,South,187,11.0,21.0,16,0.00,,,0.00,1005.000000,,2013-06-22 21:01:00,
2013-06-22 14:34:00,79.0,29.0,-100.00,SW,216,10.0,21.0,16,0.00,,,0.00,965.000000,,2013-06-22 21:34:00,
2013-06-22 14:43:00,79.0,29.0,-100.00,SW,216,10.0,21.0,16,0.00,,,0.00,965.000000,,2013-06-22 21:43:00,
2013-06-22 14:53:00,79.0,29.0,-100.00,SW,216,10.0,21.0,16,0.00,,,0.00,965.000000,,2013-06-22 21:53:00,
2013-06-22 15:01:00,79.0,29.0,-100.00,SW,216,10.0,21.0,16,0.00,,,0.00,965.000000,,2013-06-22 22:01:00,
2013-06-22 15:43:00,79.0,27.0,-100.00,SSW,200,11.0,21.0,15,0.00,,,0.00,874.000000,,2013-06-22 22:43:00,
2013-06-22 15:52:00,79.0,27.0,-100.00,SSW,200,11.0,21.0,15,0.00,,,0.00,874.000000,,2013-06-22 22:52:00,
2013-06-22 16:01:00,79.0,27.0,-100.00,SSW,200,11.0,21.0,15,0.00,,,0.00,874.000000,,2013-06-22 23:01:00,
2013-06-22 16:43:00,79.0,27.0,-100.00,South,191,10.0,27.0,15,0.00,,,0.00,733.000000,,2013-06-22 23:43:00,
2013-06-22 16:52:00,79.0,27.0,-100.00,South,191,10.0,27.0,15,0.00,,,0.00,733.000000,,2013-06-22 23:52:00,
2013-06-22 17:01:00,79.0,27.0,-100.00,South,191,10.0,27.0,15,0.00,,,0.00,733.000000,,2013-06-23 00:01:00,
2013-06-22 17:34:00,79.0,27.0,-100.00,SW,225,10.0,21.0,15,0.00,,,0.00,555.000000,,2013-06-23 00:34:00,
2013-06-22 17:42:00,79.0,27.0,-100.00,SW,225,10.0,21.0,15,0.00,,,0.00,555.000000,,2013-06-23 00:42:00,
2013-06-22 17:53:00,79.0,27.0,-100.00,SW,225,10.0,21.0,15,0.00,,,0.00,555.000000,,2013-06-23 00:53:00,
2013-06-22 18:01:00,79.0,27.0,-100.00,SW,225,10.0,21.0,15,0.00,,,0.00,555.000000,,2013-06-23 01:01:00,
2013-06-22 18:32:00,77.0,24.0,-100.00,SSW,194,11.0,20.0,14,0.00,,,0.00,359.000000,,2013-06-23 01:32:00,
2013-06-22 18:42:00,77.0,24.0,-100.00,SSW,194,11.0,20.0,14,0.00,,,0.00,359.000000,,2013-06-23 01:42:00,
2013-06-22 18:52:00,77.0,24.0,-100.00,SSW,194,11.0,20.0,14,0.00,,,0.00,359.000000,,2013-06-23 01:52:00,
2013-06-22 19:01:00,77.0,24.0,-100.00,SSW,194,11.0,20.0,14,0.00,,,0.00,359.000000,,2013-06-23 02:01:00,
2013-06-22 19:31:00,74.0,22.0,-100.00,SSW,211,8.0,17.0,14,0.00,,,0.00,166.000000,,2013-06-23 02:31:00,
2013-06-22 19:41:00,74.0,22.0,-100.00,SSW,211,8.0,17.0,14,0.00,,,0.00,166.000000,,2013-06-23 02:41:00,
2013-06-22 19:52:00,74.0,22.0,-100.00,SSW,211,8.0,17.0,14,0.00,,,0.00,166.000000,,2013-06-23 02:52:00,
2013-06-22 20:01:00,74.0,22.0,-100.00,SSW,211,8.0,17.0,14,0.00,,,0.00,166.000000,,2013-06-23 03:01:00,
2013-06-22 20:31:00,69.0,21.0,-100.00,SW,214,7.0,19.0,16,0.00,,,0.00,9.000000,,2013-06-23 03:31:00,
2013-06-22 20:41:00,69.0,21.0,-100.00,SW,214,7.0,19.0,16,0.00,,,0.00,9.000000,,2013-06-23 03:41:00,
2013-06-22 20:51:00,69.0,21.0,-100.00,SW,214,7.0,19.0,16,0.00,,,0.00,9.000000,,2013-06-23 03:51:00,
2013-06-22 21:01:00,69.0,21.0,-100.00,SW,214,7.0,19.0,16,0.00,,,0.00,9.000000,,2013-06-23 04:01:00,
2013-06-22 21:31:00,63.0,19.0,-100.00,West,262,2.0,10.0,18,0.00,,,0.00,0.000000,,2013-06-23 04:31:00,
2013-06-22 21:42:00,63.0,19.0,-100.00,West,262,2.0,10.0,18,0.00,,,0.00,0.000000,,2013-06-23 04:42:00,
2013-06-22 21:52:00,63.0,19.0,-100.00,West,262,2.0,10.0,18,0.00,,,0.00,0.000000,,2013-06-23 04:52:00,
2013-06-22 22:01:00,63.0,19.0,-100.00,West,262,2.0,10.0,18,0.00,,,0.00,0.000000,,2013-06-23 05:01:00,
2013-06-22 22:32:00,54.0,20.0,-100.00,NE,47,1.0,4.0,26,0.00,,,-99.99,0.000000,,2013-06-23 05:32:00,
2013-06-22 22:41:00,54.0,20.0,-100.00,NE,47,1.0,4.0,26,0.00,,,-99.99,0.000000,,2013-06-23 05:41:00,
2013-06-22 22:51:00,54.0,20.0,-100.00,NE,47,1.0,4.0,26,0.00,,,-99.99,0.000000,,2013-06-23 05:51:00,
2013-06-22 23:02:00,54.0,20.0,-100.00,NE,47,1.0,4.0,26,0.00,,,-99.99,0.000000,,2013-06-23 06:02:00,
2013-06-22 23:33:00,49.0,19.0,-100.00,North,1,2.0,3.0,30,0.00,,,0.00,0.000000,,2013-06-23 06:33:00,
2013-06-22 23:43:00,49.0,19.0,-100.00,North,1,2.0,3.0,30,0.00,,,0.00,0.000000,,2013-06-23 06:43:00,
2013-06-22 23:52:00,49.0,19.0,-100.00,North,1,2.0,3.0,30,0.00,,,0.00,0.000000,,2013-06-23 06:52:00,